Location: Bremen
(53.0793°N, 8.8017°E)
Time: 20:46:24
(UTC+01:00)

S-56A Canister/Altair - Pass Details

Date: 06 December 2021
Orbit: 634 x 2499 km, 38.9° (Epoch: 26 January)

Event Time Altitude Azimuth Distance (km) Brightness Sun altitude
Rises 03:12:22 0° 258° (WSW) 4,427 - -44.8°
Reaches altitude 10° 03:16:35 10° 243° (WSW) 3,089 - -44.2°
Maximum altitude 03:21:31 20° 200° (SSW) 2,059 - -43.5°
Drops below altitude 10° 03:25:28 10° 154° (SSE) 2,386 - -43.0°
Sets 03:28:14 0° 137° (SE) 3,141 - -42.6°
